Starlink 11194

operational
NORAD ID: 60187 Int'l Des: 2024-124 Owner: SPXS Country: US Constellation: starlink
LEOCIRCULAR

关于 Starlink 11194

正在加载描述...

实时位置

正在加载3D地球...

即将过境

高度历史

Altitude vs Time

uPlot chart will show altitude changes over time

两行轨道根数

1 60187U 24124E 25352.86381742 -.00002015 00000-0 -11783-4 0 9995
2 60187 53.1577 199.3904 0000680 95.3038 264.8058 15.69703575 83843
Epoch: Dec 18, 2025 • Age: 41 hours

当前状态

高度 361.4 km
速度 7.69 km/s
星下点 -3.85°S, 110.9°W
发射日期 Jul 3, 2024
运行时间 1.4 years
类型 internet

技术详情

分类 Payload
质量 960.00 kg
干质量 910.00 kg
总质量 960.00 kg
长度 0.30 m
直径 4.10 m
跨度 29.00 m
形状 Box + pan
制造商 SPXS
平台类型 Starlink V2MD
阶段状态 In Orbit
所有者/国家 SPXS/US

大型星座

Loading constellations...